Weather History for Kingsville NAS, TX

Change the Weather History Date:

Tuesday, November 6, 2012

  Actual Average Record
Temperature  
Mean Temperature 72 °F -  
Max Temperature 84 °F 75 °F 91 °F (1996)
Min Temperature 57 °F 56 °F 36 °F (2010)
Cooling Degree Days 7    
Growing Degree Days 22 (Base 50)    
Moisture  
Dew Point 55 °F    
Average Humidity 61    
Maximum Humidity 93    
Minimum Humidity 25    
Precipitation  
Precipitation 0.00 in - - ()
Sea Level Pressure  
Sea Level Pressure 30.08 in    
Wind  
Wind Speed 8 mph (East)    
Max Wind Speed 14 mph    
Max Gust Speed 18 mph    
Visibility 10 miles    
Events      
Averages and records for this station are not official NWS values.
T = Trace of Precipitation, MM = Missing Value Source: NWS Daily Summary

Daily Weather History Graph

Daily Weather History Graph

Search for Another Location

Airport:

Trip Planner

Search our weather history database for the weather conditions in past years. The results will help you decide how hot, cold, wet, or windy it might be!

Date:

Astronomy

Nov. 06, 2012 Rise Set
Actual Time 6:45 AM CST 5:43 PM CST
Civil Twilight 6:21 AM CST 6:08 PM CST
Nautical Twilight 5:53 AM CST 6:35 PM CST
Astronomical Twilight 5:25 AM CST 7:03 PM CST
Moon No Moon Rise 12:43 PM CST (11/6)
Length of Visible Light 11h 46m
Length of Day
10h 58m
Waning Gibbous, 53% of the Moon is Illuminated
Nov 6
Waning Gibbous
Nov 6
Last Quarter
Nov 13
New
Nov 20
First Quarter
Nov 28
Full

Hourly Weather History & Observations

Time (CST) Temp. Dew Point Humidity Pressure Visibility Wind Dir Wind Speed Gust Speed Precip Events Conditions
12:56 AM 69.1 °F 66.9 °F 93% 29.97 in 9.0 mi SSW 6.9 mph - N/A   Clear
1:56 AM 70.0 °F 68.0 °F 93% 29.99 in 9.0 mi WSW 3.5 mph - N/A   Clear
2:56 AM 69.1 °F 66.9 °F 93% 30.00 in 9.0 mi NNW 5.8 mph - N/A   Clear
3:56 AM 68.0 °F 66.0 °F 93% 30.01 in 10.0 mi NNE 9.2 mph - N/A   Clear
4:56 AM 66.9 °F 63.0 °F 87% 30.03 in 10.0 mi NE 10.4 mph - N/A   Clear
5:56 AM 64.9 °F 61.0 °F 87% 30.06 in 10.0 mi NE 9.2 mph - N/A   Clear
6:56 AM 66.0 °F 61.0 °F 84% 30.08 in 9.0 mi NE 6.9 mph - N/A   Scattered Clouds
7:56 AM 68.0 °F 61.0 °F 78% 30.11 in 10.0 mi NNE 8.1 mph - N/A   Scattered Clouds
8:56 AM 73.0 °F 63.0 °F 71% 30.13 in 10.0 mi NE 10.4 mph - N/A   Scattered Clouds
9:56 AM 77.0 °F 61.0 °F 58% 30.13 in 10.0 mi ENE 10.4 mph - N/A   Clear
10:56 AM 82.0 °F 52.0 °F 35% 30.12 in 10.0 mi NE 13.8 mph - N/A   Partly Cloudy
11:56 AM 82.9 °F 48.9 °F 31% 30.11 in 10.0 mi NE 13.8 mph 18.4 mph N/A   Partly Cloudy
12:56 PM 82.9 °F 46.0 °F 27% 30.09 in 10.0 mi ENE 9.2 mph - N/A   Clear
1:56 PM 84.9 °F 46.9 °F 27% 30.07 in 10.0 mi East 9.2 mph - N/A   Partly Cloudy
2:56 PM 84.0 °F 45.0 °F 25% 30.06 in 10.0 mi ESE 9.2 mph - N/A   Partly Cloudy
3:56 PM 84.0 °F 44.1 °F 25% 30.06 in 10.0 mi East 8.1 mph - N/A   Clear
4:56 PM 79.0 °F 46.9 °F 32% 30.06 in 10.0 mi ESE 11.5 mph - N/A   Clear
5:56 PM 72.0 °F 43.0 °F 35% 30.08 in 10.0 mi ESE 8.1 mph - N/A   Partly Cloudy
6:56 PM 66.0 °F 44.1 °F 45% 30.10 in 10.0 mi SE 5.8 mph - N/A   Clear
7:56 PM 64.0 °F 48.9 °F 58% 30.11 in 10.0 mi SE 6.9 mph - N/A   Clear
8:56 PM 62.1 °F 51.1 °F 67% 30.12 in 10.0 mi SE 5.8 mph - N/A   Clear
9:56 PM 63.0 °F 52.0 °F 67% 30.12 in 10.0 mi SSE 4.6 mph - N/A   Clear
10:56 PM 60.1 °F 52.0 °F 75% 30.12 in 10.0 mi SE 4.6 mph - N/A   Clear
11:56 PM 57.9 °F 52.0 °F 81% 30.12 in 10.0 mi Calm Calm - N/A   Clear